Snowfall_Accumulation
nan nan nan nan nan nan nan 0.0 1.4 0.0 0.0 1.8 1.1 1.1 0.0 nan 0.0 0.0 0.0 0.1 0.7 1.9 2.4 1.4 3.4 0.6 0.0 0.0 0.0 0.0 0.0 0.0 0.0 0.0 0.0 0.0 0.0 0.0 0.0 0.8 0.2 0.1 0.4 0.5
nan nan nan nan nan nan 0.0 0.4 0.0 0.0 0.0 5.6 1.0 0.0 0.0 0.0 0.0 0.0 0.0 0.2 0.3 0.9 2.9 3.4 1.8 0.9 0.0 0.0 0.0 0.0 0.0 0.0 0.0 0.3 0.1 0.0 0.0 0.0 0.0 0.0 0.0 0.2 2.8 0.2
nan nan nan nan nan nan 0.0 0.2 2.8 0.1 0.2 0.4 0.2 0.2 0.0 0.2 0.0 0.1 0.0 0.1 0.6 0.9 1.4 0.2 2.3 1.2 0.0 0.0 0.0 nan nan 0.0 0.0 0.2 0.1 0.0 0.0 0.0 0.0 0.0 0.9 0.2 0.1 0.0
nan nan nan nan nan nan 0.0 0.2 3.4 0.1 2.7 1.7 0.3 0.4 0.3 0.9 1.0 0.1 0.0 0.2 0.2 0.4 2.3 0.7 0.9 0.4 0.1 0.0 nan 0.0 0.0 0.0 0.0 0.0 0.0 0.0 0.0 0.0 0.0 0.0 0.0 0.3 0.0 0.0
nan nan nan nan nan nan 0.0 3.5 0.3 0.0 0.1 0.0 0.1 0.2 0.6 0.5 0.0 0.2 0.1 0.1 0.0 0.0 0.3 0.2 0.4 0.1 0.0 0.7 0.0 0.0 0.0 0.0 0.0 0.0 0.0 0.0 0.0 0.0 0.0 0.0 0.0 0.0 0.0 0.0
nan nan nan nan nan nan 0.0 0.0 0.0 0.0 nan 0.0 0.5 0.5 0.0 0.1 0.0 0.0 0.0 0.0 0.0 0.0 0.0 0.0 0.0 0.0 0.0 0.0 0.0 0.0 0.0 0.0 0.1 0.0 0.0 0.0 0.1 0.0 0.0 0.0 0.0 0.0 0.0 0.0
nan nan nan nan nan nan 0.0 0.0 0.0 0.5 1.5 0.3 0.0 0.0 0.0 0.0 0.0 0.0 0.0 0.0 0.0 0.0 0.0 0.0 0.0 0.0 0.0 0.0 0.0 0.0 0.0 0.0 0.1 0.5 0.0 0.6 0.0 0.0 0.0 0.0 0.0 0.0 0.0 0.0
nan nan nan nan nan nan 0.0 0.0 0.1 0.2 2.1 0.0 0.0 0.0 0.0 0.0 0.0 0.0 0.0 0.0 0.0 0.0 0.0 0.0 0.0 0.1 0.0 0.0 0.0 0.0 0.0 0.0 0.7 0.8 0.2 0.0 0.0 0.0 0.0 0.0 0.0 0.0 0.0 0.0
nan nan nan nan nan nan 0.0 0.0 0.0 0.0 1.0 0.1 0.0 0.0 0.0 0.1 0.0 0.0 0.0 0.0 0.0 0.0 0.0 0.3 0.2 0.4 0.0 0.0 0.0 0.0 0.0 0.0 0.2 0.5 0.2 1.3 0.0 0.0 0.0 0.0 0.0 0.0 0.0 0.0
nan nan nan nan nan nan 0.0 0.0 0.0 0.1 2.2 0.0 0.0 0.0 0.0 0.0 0.0 0.1 0.0 0.0 0.0 0.0 0.5 1.6 0.5 0.4 0.0 0.1 0.0 0.1 0.3 0.3 0.7 0.7 0.7 0.2 0.0 0.0 0.0 0.2 0.1 0.0 0.0 0.0
nan nan nan nan nan nan 0.0 0.0 0.0 0.0 0.2 0.0 0.0 0.0 0.0 0.0 0.0 0.5 0.0 1.2 0.7 0.6 0.5 0.3 0.2 0.5 0.1 0.2 0.0 0.0 0.2 0.6 1.4 0.6 0.7 1.2 0.0 0.0 0.0 0.0 0.0 0.0 0.0 0.0
nan nan nan nan nan nan nan 0.0 0.0 0.0 0.0 0.1 0.0 0.0 0.0 0.0 0.0 0.0 0.0 0.3 0.1 0.0 0.4 0.2 0.2 0.7 1.0 0.0 1.1 0.0 2.1 0.2 0.5 0.1 0.6 0.1 0.0 0.0 0.1 0.0 0.0 0.1 0.1 0.0
nan nan nan nan nan nan nan 0.0 0.0 0.0 0.6 0.0 0.0 0.0 0.0 0.0 0.0 0.0 0.4 0.0 0.0 0.2 0.1 0.9 0.7 0.5 0.0 0.8 0.1 0.1 0.2 0.1 1.6 0.7 0.5 0.2 0.2 0.0 0.1 0.1 0.6 0.4 0.1 0.3
nan nan nan nan nan nan nan 0.0 0.0 0.0 0.0 2.4 0.1 0.0 0.0 0.0 0.0 0.0 0.0 0.0 0.0 0.0 0.0 0.3 0.8 0.8 0.0 0.5 0.2 0.3 0.4 0.0 0.3 1.8 0.4 0.2 0.1 0.2 0.2 0.2 0.1 0.1 0.0 0.0
nan nan nan nan nan nan nan 0.0 0.0 0.0 0.3 1.0 0.1 0.0 0.0 0.0 0.0 0.0 0.0 0.0 0.0 0.0 0.1 1.0 0.5 0.0 0.2 0.0 0.2 0.5 0.1 0.7 2.5 3.5 1.5 0.8 1.2 0.7 0.5 0.6 0.4 0.2 0.1 0.1
nan nan nan nan nan nan 0.0 3.8 0.0 0.0 0.0 1.5 0.7 0.0 0.0 0.0 0.0 0.0 0.0 0.0 0.0 0.0 0.0 0.4 0.3 0.0 0.0 1.6 1.8 0.8 0.8 0.3 0.6 1.4 0.7 1.6 2.8 1.0 0.3 0.3 0.1 0.0 0.0 0.0
nan nan nan nan nan 0.0 0.0 0.1 0.0 nan 0.0 2.0 1.1 0.3 0.0 0.0 0.0 0.0 0.0 0.0 0.0 0.0 0.0 0.2 0.0 0.0 0.0 1.4 1.1 0.3 0.2 0.1 0.0 0.1 0.1 0.2 0.1 0.3 0.0 0.0 0.0 0.0 0.0 0.0
nan nan nan nan nan nan 0.0 0.0 nan nan 0.0 0.0 2.5 0.7 0.1 0.0 0.2 0.2 0.0 0.0 0.0 0.0 0.0 0.2 0.1 0.0 0.4 2.5 0.2 0.0 0.0 0.0 0.0 0.0 0.0 0.0 0.0 0.0 0.0 0.0 0.0 0.0 0.0 0.0
nan nan nan 0.0 0.0 0.0 0.0 nan nan 0.0 0.1 0.7 2.4 1.1 4.4 0.0 0.1 0.2 0.2 0.0 1.7 0.0 0.7 0.2 0.0 1.3 4.7 2.0 0.3 0.1 0.0 0.0 0.0 0.0 0.0 0.0 0.0 0.0 0.0 0.0 0.0 0.1 0.1 0.1
nan 0.0 0.1 7.6 0.0 nan nan 0.0 1.4 0.4 0.0 0.0 0.8 0.2 2.5 0.1 0.5 0.7 0.6 0.3 1.1 1.6 0.9 0.0 2.1 2.6 0.2 0.1 0.0 0.1 0.1 0.1 0.1 0.1 0.1 0.1 0.1 0.1 0.1 0.2 0.3 0.4 0.7 1.7
0.1 4.0 2.2 0.0 nan 0.0 0.3 6.0 3.8 1.8 1.5 0.1 0.2 0.1 0.2 0.0 1.7 1.1 0.3 2.4 1.1 2.0 0.9 1.6 3.4 2.5 1.5 0.1 0.0 0.0 0.0 0.0 0.1 0.1 0.1 0.2 0.2 0.2 0.2 0.3 0.3 0.3 0.5 1.7
0.0 0.1 0.0 0.0 1.2 3.9 1.3 4.7 1.9 0.6 0.3 0.3 0.5 0.3 0.1 0.3 0.0 0.6 1.0 2.3 2.7 2.7 0.8 5.7 5.0 3.2 0.2 0.1 0.1 0.1 0.1 0.0 0.0 0.0 0.1 0.1 0.2 0.2 0.2 0.4 0.8 1.1 1.5 4.8
0.0 0.3 1.5 1.1 6.0 29.2 5.2 5.3 2.6 6.3 1.6 1.7 1.1 4.5 0.3 0.3 1.8 2.6 1.1 5.1 8.3 1.3 8.1 4.5 4.4 1.0 0.2 0.1 0.1 0.1 0.1 0.1 0.1 0.2 0.2 0.2 0.4 0.4 0.6 2.7 3.7 4.5 5.0 6.8
3.6 5.6 34.5 7.3 6.7 2.9 3.6 2.2 2.4 2.3 1.6 1.6 0.7 1.2 1.1 1.7 4.5 8.8 7.7 4.5 1.3 6.6 5.5 3.7 3.5 2.3 1.8 0.5 0.4 0.4 2.8 3.2 3.1 3.7 3.9 4.6 4.6 6.9 6.2 7.4 8.3 6.4 5.4 8.5
4.1 1.9 22.1 7.2 3.4 2.9 3.4 2.2 1.9 1.6 1.3 1.4 1.4 1.0 0.6 3.5 6.9 4.0 2.2 5.6 6.4 3.6 5.7 5.3 4.8 2.8 1.8 2.5 2.0 2.5 3.2 4.7 4.3 4.3 4.5 6.7 6.3 4.5 5.6 6.4 5.8 4.1 6.9 7.4
0.9 1.0 4.5 3.3 6.9 13.7 11.0 6.9 6.1 1.1 1.7 1.0 0.8 1.5 3.5 5.3 4.9 2.9 5.7 1.9 3.8 7.2 6.0 5.7 4.3 3.9 4.7 4.9 4.6 5.2 5.2 4.9 4.8 4.4 4.2 4.5 5.2 4.9 5.3 3.9 4.2 8.1 7.0 10.5
0.6 12.5 6.3 7.8 6.5 10.9 10.0 6.5 3.5 1.5 2.1 7.2 1.4 3.5 2.9 1.0 3.5 2.4 3.8 12.0 9.4 7.4 6.7 6.1 4.1 4.9 5.7 5.6 5.2 6.7 4.8 4.0 4.0 3.8 3.2 3.4 3.5 2.8 1.5 2.1 4.0 1.8 1.8 7.4
Water_Equivalent
nan nan nan nan nan nan nan 0.00 0.37 0.00 0.00 0.35 0.21 0.18 0.00 nan 0.00 0.00 0.00 0.02 0.13 0.29 0.37 0.22 0.65 0.10 0.00 0.00 0.00 0.00 0.00 0.00 0.00 0.00 0.00 0.00 0.00 0.00 0.00 0.16 0.04 0.03 0.08 0.09
nan nan nan nan nan nan 0.00 0.11 0.01 0.00 0.00 0.86 0.19 0.01 0.00 0.00 0.00 0.00 0.00 0.03 0.05 0.16 0.48 0.57 0.33 0.17 0.00 0.00 0.00 0.00 0.00 0.00 0.01 0.05 0.01 0.00 0.00 0.00 0.00 0.00 0.00 0.04 0.58 0.05
nan nan nan nan nan nan 0.00 0.08 0.66 0.02 0.04 0.09 0.04 0.03 0.01 0.03 0.00 0.02 0.00 0.01 0.11 0.16 0.25 0.05 0.37 0.20 0.00 0.00 0.00 nan nan 0.00 0.00 0.05 0.03 0.00 0.01 0.00 0.00 0.00 0.21 0.05 0.02 0.00
nan nan nan nan nan nan 0.00 0.06 0.76 0.03 0.59 0.32 0.05 0.07 0.05 0.13 0.16 0.02 0.00 0.04 0.03 0.08 0.35 0.11 0.15 0.07 0.02 0.01 nan 0.00 0.00 0.00 0.00 0.00 0.00 0.00 0.00 0.00 0.00 0.00 0.00 0.06 0.00 0.00
nan nan nan nan nan nan 0.00 1.23 0.07 0.00 0.02 0.00 0.02 0.04 0.09 0.07 0.01 0.03 0.01 0.01 0.00 0.00 0.06 0.03 0.06 0.03 0.01 0.11 0.00 0.00 0.00 0.00 0.00 0.00 0.00 0.00 0.00 0.00 0.00 0.00 0.00 0.00 0.00 0.00
nan nan nan nan nan nan 0.00 0.00 0.00 0.01 nan 0.00 0.11 0.09 0.01 0.02 0.00 0.00 0.00 0.00 0.00 0.00 0.00 0.00 0.00 0.00 0.00 0.00 0.00 0.00 0.00 0.00 0.02 0.00 0.00 0.00 0.03 0.00 0.00 0.00 0.00 0.00 0.00 0.00
nan nan nan nan nan nan 0.00 0.00 0.01 0.09 0.31 0.07 0.00 0.00 0.00 0.00 0.00 0.00 0.00 0.00 0.00 0.00 0.00 0.00 0.00 0.00 0.00 0.00 0.00 0.00 0.00 0.00 0.01 0.13 0.01 0.14 0.00 0.00 0.00 0.00 0.00 0.00 0.00 0.00
nan nan nan nan nan nan 0.00 0.00 0.01 0.04 0.60 0.00 0.01 0.00 0.00 0.00 0.00 0.00 0.00 0.00 0.00 0.00 0.00 0.01 0.00 0.04 0.00 0.00 0.00 0.00 0.00 0.00 0.19 0.24 0.07 0.00 0.00 0.00 0.00 0.00 0.00 0.00 0.00 0.00
nan nan nan nan nan nan 0.00 0.00 0.00 0.00 0.23 0.02 0.00 0.00 0.00 0.02 0.01 0.00 0.00 0.00 0.00 0.00 0.00 0.08 0.03 0.13 0.00 0.02 0.00 0.00 0.00 0.00 0.06 0.13 0.04 0.34 0.01 0.00 0.00 0.00 0.00 0.00 0.00 0.00
nan nan nan nan nan nan 0.00 0.00 0.00 0.02 0.57 0.00 0.00 0.00 0.00 0.00 0.00 0.02 0.00 0.00 0.00 0.00 0.14 0.42 0.15 0.10 0.00 0.04 0.00 0.02 0.10 0.12 0.21 0.19 0.17 0.05 0.00 0.00 0.00 0.05 0.03 0.00 0.00 0.00
nan nan nan nan nan nan 0.00 0.00 0.00 0.00 0.05 0.00 0.00 0.00 0.00 0.00 0.00 0.11 0.00 0.26 0.20 0.17 0.14 0.11 0.08 0.20 0.02 0.04 0.00 0.00 0.04 0.15 0.41 0.18 0.19 0.29 0.00 0.00 0.00 0.00 0.00 0.00 0.00 0.00
nan nan nan nan nan nan nan 0.00 0.00 0.00 0.00 0.02 0.00 0.00 0.00 0.00 0.00 0.00 0.00 0.09 0.03 0.00 0.07 0.06 0.07 0.24 0.37 0.01 0.21 0.00 0.42 0.04 0.10 0.02 0.11 0.02 0.00 0.01 0.01 0.01 0.00 0.02 0.01 0.01
nan nan nan nan nan nan nan 0.00 0.00 0.00 0.19 0.00 0.00 0.00 0.00 0.00 0.00 0.00 0.13 0.00 0.00 0.05 0.03 0.17 0.15 0.09 0.01 0.25 0.04 0.03 0.06 0.03 0.49 0.16 0.13 0.05 0.03 0.00 0.02 0.02 0.11 0.08 0.02 0.05
nan nan nan nan nan nan nan 0.00 0.00 0.00 0.01 0.65 0.02 0.00 0.00 0.00 0.00 0.00 0.00 0.00 0.00 0.00 0.00 0.09 0.23 0.25 0.00 0.14 0.05 0.06 0.11 0.01 0.06 0.40 0.08 0.04 0.03 0.05 0.04 0.04 0.02 0.01 0.00 0.00
nan nan nan nan nan nan nan 0.00 0.00 0.00 0.06 0.23 0.03 0.00 0.00 0.00 0.00 0.00 0.00 0.00 0.00 0.00 0.03 0.36 0.16 0.00 0.06 0.02 0.06 0.10 0.02 0.13 0.58 0.60 0.36 0.16 0.22 0.12 0.10 0.10 0.07 0.03 0.02 0.02
nan nan nan nan nan nan 0.00 1.47 0.00 0.00 0.00 0.31 0.20 0.00 0.00 0.00 0.00 0.00 0.00 0.00 0.00 0.00 0.01 0.14 0.06 0.00 0.01 0.48 0.35 0.15 0.16 0.05 0.11 0.26 0.15 0.34 0.54 0.18 0.06 0.06 0.02 0.00 0.00 0.00
nan nan nan nan nan 0.00 0.00 0.02 0.00 nan 0.00 0.44 0.28 0.09 0.00 0.00 0.00 0.00 0.00 0.00 0.00 0.00 0.00 0.08 0.00 0.00 0.00 0.42 0.25 0.05 0.03 0.01 0.00 0.02 0.01 0.03 0.01 0.04 0.00 0.00 0.00 0.00 0.00 0.00
nan nan nan nan nan nan 0.00 0.00 nan nan 0.00 0.01 0.61 0.25 0.06 0.00 0.07 0.10 0.00 0.02 0.02 0.01 0.00 0.06 0.05 0.00 0.11 0.53 0.03 0.00 0.00 0.00 0.00 0.00 0.00 0.00 0.00 0.00 0.00 0.00 0.00 0.00 0.00 0.00
nan nan nan 0.00 0.00 0.00 0.00 nan nan 0.00 0.03 0.18 0.86 0.36 1.17 0.00 0.04 0.06 0.06 0.01 0.45 0.01 0.23 0.07 0.01 0.29 0.92 0.37 0.07 0.01 0.00 0.00 0.00 0.00 0.00 0.00 0.00 0.00 0.01 0.00 0.01 0.01 0.01 0.02
nan 0.00 0.01 1.65 0.01 nan nan 0.01 0.49 0.12 0.00 0.01 0.27 0.07 0.55 0.02 0.15 0.21 0.18 0.11 0.34 0.43 0.30 0.01 0.48 0.45 0.04 0.01 0.00 0.02 0.03 0.03 0.02 0.01 0.02 0.02 0.03 0.02 0.03 0.04 0.05 0.06 0.11 0.22
0.03 0.93 0.53 0.00 nan 0.00 0.07 1.23 0.82 0.42 0.38 0.03 0.06 0.05 0.09 0.01 0.49 0.40 0.13 0.71 0.43 0.62 0.23 0.42 0.73 0.52 0.27 0.02 0.00 0.00 0.00 0.00 0.01 0.02 0.03 0.03 0.03 0.04 0.04 0.04 0.04 0.05 0.07 0.20
0.01 0.02 0.00 0.00 0.28 0.87 0.28 1.27 0.60 0.19 0.10 0.12 0.21 0.12 0.02 0.12 0.01 0.22 0.39 0.60 0.64 0.67 0.20 1.43 0.95 0.46 0.04 0.02 0.01 0.01 0.01 0.00 0.01 0.00 0.02 0.02 0.03 0.03 0.04 0.06 0.12 0.14 0.20 0.73
0.00 0.07 0.31 0.25 1.44 4.82 1.44 1.24 0.78 2.00 0.55 0.67 0.43 1.78 0.14 0.14 0.45 1.00 0.46 1.60 1.82 0.31 1.95 0.80 0.70 0.15 0.03 0.03 0.01 0.03 0.01 0.02 0.02 0.04 0.03 0.03 0.07 0.07 0.10 0.33 0.48 0.63 0.61 0.80
0.75 1.16 5.35 1.93 1.95 0.75 0.81 0.53 0.68 0.74 0.61 0.57 0.26 0.46 0.37 0.62 1.22 2.22 2.08 1.18 0.37 1.63 1.13 0.67 0.53 0.37 0.31 0.09 0.08 0.08 0.43 0.55 0.48 0.54 0.58 0.66 0.66 0.89 0.86 1.08 1.25 0.89 0.64 0.96
0.78 0.42 3.17 1.57 0.84 0.78 0.97 0.76 0.66 0.48 0.43 0.47 0.49 0.36 0.15 1.01 1.87 1.03 0.60 1.40 1.46 0.76 1.01 0.87 0.78 0.40 0.29 0.35 0.32 0.35 0.45 0.71 0.60 0.57 0.60 0.92 0.83 0.58 0.67 0.78 0.70 0.48 0.90 0.93
0.20 0.24 1.07 0.89 1.74 3.15 3.12 2.08 1.92 0.35 0.54 0.35 0.26 0.42 0.98 1.28 1.19 0.67 1.16 0.39 0.67 1.19 0.90 0.79 0.61 0.50 0.58 0.60 0.59 0.67 0.68 0.64 0.60 0.54 0.51 0.54 0.64 0.61 0.55 0.43 0.48 1.16 1.03 1.53
0.13 2.50 1.31 1.77 1.54 2.33 2.15 1.53 0.79 0.34 0.65 2.25 0.42 0.85 0.59 0.25 0.76 0.40 0.55 1.94 1.32 1.00 0.80 0.75 0.55 0.59 0.66 0.67 0.66 0.92 0.59 0.47 0.46 0.44 0.37 0.38 0.39 0.32 0.17 0.23 0.40 0.20 0.20 1.14
SL_Ratio
nan nan nan nan nan nan nan nan 3.8 nan nan 5.1 5.1 5.7 nan nan nan nan nan 4.8 5.2 6.4 6.4 6.6 5.2 5.7 nan nan nan nan nan nan nan nan nan nan nan nan nan 4.8 4.6 4.4 4.6 5.2
nan nan nan nan nan nan nan 4.0 4.6 nan nan 6.5 5.5 4.8 nan nan nan nan nan 5.3 5.1 5.5 6.1 6.0 5.5 5.5 nan nan nan nan nan nan 4.1 5.9 5.8 nan nan nan nan nan 0.0 4.7 4.8 4.9
nan nan nan nan nan nan nan 3.2 4.2 3.2 4.6 4.2 6.2 6.2 5.9 6.0 nan 5.6 nan 5.4 5.2 5.3 5.7 5.4 6.1 5.9 nan nan nan nan nan nan nan 4.8 4.9 nan 4.1 nan nan nan 4.4 4.9 4.7 nan
nan nan nan nan nan nan nan 2.5 4.5 4.1 4.6 5.3 5.5 6.0 5.6 6.4 6.3 5.6 nan 5.2 5.2 5.4 6.4 5.7 6.0 5.5 5.5 5.0 nan nan nan 6.0 nan nan nan nan nan nan nan 10.0 nan 4.8 nan nan
nan nan nan nan nan nan nan 2.9 4.1 nan 3.7 nan 5.3 5.7 6.4 6.4 5.7 5.8 5.7 5.5 5.0 nan 5.7 5.3 6.2 5.6 5.4 6.1 nan nan nan 6.3 nan nan nan nan nan nan nan nan nan nan nan nan
nan nan nan nan nan nan nan nan nan 4.7 nan nan 4.8 4.9 6.3 5.9 5.0 6.0 nan nan nan nan nan nan nan nan nan nan nan nan nan 2.9 3.4 nan nan nan 3.1 nan nan nan nan nan 5.0 nan
nan nan nan nan nan nan nan nan 5.0 4.9 4.9 4.3 nan nan nan nan nan 10.0 nan nan nan nan nan nan nan nan nan nan nan nan nan nan 3.6 3.6 2.9 4.0 3.8 nan nan nan nan nan nan nan
nan nan nan nan nan nan nan nan 4.6 5.4 3.6 4.0 4.1 nan nan nan nan nan nan nan nan nan nan 3.3 5.0 2.6 nan nan nan nan nan nan 3.6 3.4 3.6 nan nan nan nan nan 0.0 nan nan nan
nan nan nan nan nan nan nan nan nan nan 4.4 3.8 nan nan nan 4.4 4.3 3.8 nan nan nan nan 5.0 3.9 6.2 3.4 nan 2.6 nan nan nan nan 2.5 3.6 5.3 3.8 6.7 nan nan nan 3.6 nan nan nan
nan nan nan nan nan nan nan nan nan 5.0 3.9 nan nan nan nan nan 5.0 4.4 4.5 nan nan nan 3.4 3.8 3.4 3.4 nan 4.0 5.5 4.6 2.6 2.6 3.0 3.4 3.9 3.2 nan nan nan 3.3 5.3 nan nan nan
nan nan nan nan nan nan nan nan nan nan 3.6 nan nan nan nan nan nan 5.0 nan 4.8 3.4 3.3 4.0 3.1 3.1 2.7 2.7 4.4 5.0 5.4 5.0 3.7 3.3 3.5 3.8 4.3 nan nan 5.0 4.5 10.0 nan nan nan
nan nan nan nan nan nan nan nan nan nan nan 4.2 nan nan nan nan nan nan nan 3.8 4.5 4.4 5.2 3.2 3.1 3.1 2.6 3.8 5.4 nan 4.9 4.7 5.2 5.1 5.4 3.5 nan 6.1 5.2 5.6 6.0 4.7 4.3 3.8
nan nan nan nan nan nan nan nan nan 2.7 3.2 4.6 2.7 nan nan nan nan nan 2.9 nan nan 3.7 4.3 5.1 4.5 5.4 3.1 3.0 3.0 4.1 2.7 2.6 3.2 4.1 3.8 4.8 5.6 6.7 4.1 5.4 5.5 5.4 4.9 5.1
nan nan nan nan nan nan nan nan nan nan 4.5 3.7 3.8 nan nan nan nan nan nan nan nan nan nan 3.2 3.6 3.2 5.0 3.7 3.5 4.4 3.3 3.2 4.5 4.4 4.8 5.0 4.7 5.0 5.5 5.5 5.4 5.6 7.1 nan
nan nan nan nan nan nan nan nan nan nan 5.1 4.1 3.2 nan nan nan nan nan nan nan nan nan 2.6 2.7 3.2 nan 3.8 2.5 3.5 4.6 4.8 5.5 4.3 5.9 4.1 4.8 5.5 5.3 5.3 6.0 6.1 5.8 5.7 6.1
nan nan nan nan nan nan nan 2.6 nan nan nan 4.8 3.5 nan nan nan nan nan nan nan nan nan 2.9 3.0 4.9 nan 3.6 3.3 5.3 5.3 5.1 5.0 5.2 5.2 4.8 4.7 5.1 5.4 5.4 6.0 6.0 5.0 nan 10.0
nan nan nan nan nan nan nan 3.5 nan nan nan 4.6 4.1 3.1 nan nan nan nan nan nan nan nan nan 3.0 nan nan 0.0 3.4 4.3 5.7 5.0 5.3 5.0 5.6 5.5 5.5 5.1 6.1 nan nan nan nan nan nan
nan nan nan nan nan nan nan nan nan nan nan 5.3 4.1 2.8 2.5 nan 2.7 2.5 nan 2.5 2.5 2.8 3.6 2.6 2.6 2.1 3.7 4.7 5.3 nan nan nan nan nan nan nan nan nan nan nan nan nan nan nan
nan nan nan nan nan 3.1 nan nan nan nan 4.7 3.8 2.8 3.0 3.8 nan 3.7 2.5 2.6 2.5 3.8 2.6 2.9 2.6 2.9 4.3 5.1 5.5 4.7 5.0 nan nan 10.0 nan nan nan nan 3.3 3.6 4.0 4.2 4.4 5.9 5.4
nan nan 4.0 4.6 2.6 nan nan 3.4 2.9 3.4 2.7 2.5 2.9 3.2 4.4 4.7 3.4 3.2 3.1 2.5 3.1 3.7 3.1 4.3 4.4 5.7 5.8 5.7 nan 4.4 4.6 4.3 4.3 4.8 5.3 5.8 5.5 5.4 5.4 5.5 5.5 5.9 6.4 7.6
2.5 4.3 4.1 nan nan nan 3.6 4.9 4.7 4.2 3.8 2.5 2.7 2.9 2.9 2.5 3.6 2.8 2.6 3.4 2.6 3.3 3.9 3.8 4.7 4.8 5.4 5.2 nan nan nan nan 4.7 4.5 5.2 5.8 5.7 5.9 6.0 6.3 6.2 6.4 6.7 8.8
3.8 5.0 nan 3.3 4.5 4.5 4.7 3.7 3.1 3.4 3.5 2.6 2.6 2.6 2.5 2.7 4.7 2.8 2.6 3.8 4.3 4.0 4.1 4.0 5.2 7.0 6.3 5.1 5.2 5.1 5.4 6.0 5.8 6.3 5.6 5.7 6.0 5.8 6.0 6.4 7.1 7.6 7.6 6.6
nan 4.0 4.9 4.5 4.2 6.1 3.6 4.3 3.3 3.2 2.9 2.5 2.5 2.5 2.5 2.5 3.9 2.6 2.5 3.2 4.6 4.2 4.1 5.6 6.3 6.5 5.6 4.8 4.8 5.2 5.4 5.4 5.5 6.1 5.7 6.2 6.5 5.9 6.0 7.9 7.9 7.1 8.3 8.5
4.9 4.8 6.5 3.8 3.4 3.8 4.5 4.2 3.6 3.2 2.5 2.8 2.5 2.5 2.9 2.7 3.7 4.0 3.7 3.8 3.4 4.1 4.9 5.6 6.7 6.2 5.9 5.2 5.2 4.7 6.5 5.8 6.4 6.7 6.7 7.0 7.0 7.7 7.3 6.8 6.7 7.2 8.5 8.8
5.2 4.6 7.0 4.6 4.0 3.7 3.5 2.9 2.9 3.2 3.0 3.0 2.8 2.9 3.6 3.5 3.7 3.9 3.8 4.0 4.4 4.7 5.7 6.1 6.1 6.9 6.2 7.1 6.4 7.2 7.2 6.6 7.1 7.6 7.5 7.2 7.6 7.8 8.4 8.2 8.4 8.5 7.6 7.9
4.4 4.1 4.2 3.8 4.0 4.4 3.5 3.3 3.2 3.2 3.2 2.9 3.0 3.5 3.6 4.1 4.1 4.4 4.9 4.8 5.6 6.0 6.7 7.2 7.1 7.9 8.1 8.1 7.8 7.8 7.6 7.7 8.1 8.2 8.4 8.3 8.1 8.1 9.6 9.2 8.9 7.0 6.7 6.9
4.5 5.0 4.9 4.4 4.2 4.7 4.7 4.2 4.5 4.3 3.2 3.2 3.4 4.1 5.0 4.0 4.6 5.9 6.9 6.2 7.1 7.4 8.3 8.1 7.4 8.4 8.7 8.3 7.9 7.3 8.2 8.6 8.7 8.7 8.7 9.0 8.9 8.8 8.8 9.3 10.0 8.8 8.7 6.5